Orbital Elements at Epoch 2459200.5 (2020-Dec-17.0) TDB
Reference: JPL 14 (heliocentric ecliptic J2000)
Element | Value | Uncertainty (1-sigma) | Units |
e | .1657498623291852 | 4.8912e-08 | |
a | 2.258692946526163 | 1.2896e-08 | au |
q | 1.88431490159555 | 1.0679e-07 | au |
i | 2.521759618456744 | 6.9365e-06 | deg |
node | 108.6896590760323 | 0.0001632 | deg |
peri | 154.0925402772901 | 0.00016551 | deg |
M | 183.6685403555911 | 2.6795e-05 | deg |
tp | 2459807.811523983740 (2022-Aug-16.31152398) | 9.2989e-05 | TDB |
period | 1239.89303482794 3.39 | 1.0619e-05 2.907e-08 | d yr |
n | .2903476266805203 | 2.4867e-09 | deg/d |
Q | 2.633070991456776 | 1.5034e-08 | au |
|
| | Orbit Determination Parameters
Additional Information
|